TimePST,TemperatureF,Dew PointF,Humidity,Sea Level PressureIn,VisibilityMPH,Wind Direction,Wind SpeedMPH,Gust SpeedMPH,PrecipitationIn,Events,Conditions,WindDirDegrees,DateUTC
12:56 AM,-9999,-9999,N/A,29.84,-9999.0,North,-9999.0,-,N/A,,Unknown,0,2012-12-15 08:56:00
1:56 AM,-9999,-9999,N/A,29.85,-9999.0,North,-9999.0,-,N/A,,Unknown,0,2012-12-15 09:56:00
2:56 AM,-9999,-9999,N/A,29.87,-9999.0,North,-9999.0,-,N/A,,Unknown,0,2012-12-15 10:56:00
3:56 AM,-9999,-9999,N/A,29.86,-9999.0,North,-9999.0,-,N/A,,Unknown,0,2012-12-15 11:56:00
5:56 AM,-9999,-9999,N/A,29.86,-9999.0,North,-9999.0,-,N/A,,Unknown,0,2012-12-15 13:56:00
6:56 AM,-9999,-9999,N/A,29.87,-9999.0,North,-9999.0,-,N/A,,Unknown,0,2012-12-15 14:56:00
7:33 AM,26.6,23.0,86,29.93,1.0,Calm,Calm,-,N/A,,Partly Cloudy,0,2012-12-15 15:33:00
7:56 AM,24.8,23.7,96,29.86,3.0,North,-9999.0,-,N/A,,Partly Cloudy,0,2012-12-15 15:56:00
8:56 AM,26.1,25.7,99,29.87,8.0,Calm,Calm,-,N/A,,Scattered Clouds,0,2012-12-15 16:56:00
9:56 AM,30.4,28.0,91,29.88,8.0,Calm,Calm,-,N/A,,Mostly Cloudy,0,2012-12-15 17:56:00
10:56 AM,33.6,28.6,82,29.86,8.0,Calm,Calm,-,N/A,,Mostly Cloudy,0,2012-12-15 18:56:00
11:56 AM,37.4,28.4,70,29.92,10.0,Calm,Calm,-,N/A,,Mostly Cloudy,0,2012-12-15 19:56:00
12:56 PM,38.3,26.6,63,29.82,10.0,Variable,3.5,-,N/A,,Overcast,0,2012-12-15 20:56:00
1:56 PM,40.3,25.5,56,29.80,10.0,SSE,9.2,-,N/A,,Overcast,160,2012-12-15 21:56:00
2:56 PM,38.5,22.3,52,29.81,10.0,SSE,5.8,-,N/A,,Overcast,150,2012-12-15 22:56:00
3:56 PM,38.8,24.8,57,29.81,10.0,SSE,5.8,-,N/A,,Overcast,160,2012-12-15 23:56:00
4:56 PM,37.0,23.5,58,29.81,10.0,SSE,6.9,-,N/A,,Overcast,160,2012-12-16 00:56:00
5:56 PM,36.0,23.4,60,29.82,10.0,SSE,9.2,-,N/A,,Overcast,160,2012-12-16 01:56:00
6:56 PM,-9999,-9999,N/A,29.81,-9999.0,North,-9999.0,-,N/A,,Unknown,0,2012-12-16 02:56:00
7:56 PM,-9999,-9999,N/A,29.83,-9999.0,North,-9999.0,-,N/A,,Unknown,0,2012-12-16 03:56:00
8:56 PM,-9999,-9999,N/A,29.83,-9999.0,North,-9999.0,-,N/A,,Unknown,0,2012-12-16 04:56:00
9:56 PM,-9999,-9999,N/A,29.84,-9999.0,North,-9999.0,-,N/A,,Unknown,0,2012-12-16 05:56:00
10:56 PM,-9999,-9999,N/A,29.82,-9999.0,North,-9999.0,-,N/A,,Unknown,0,2012-12-16 06:56:00
11:56 PM,-9999,-9999,N/A,29.84,-9999.0,North,-9999.0,-,N/A,,Unknown,0,2012-12-16 07:56:00